FW8526 Weather Reports


time (UTC)temp
C
wind
direction
speed
KPH
gust
KPH
rain 1hr
cm
rain 24hr
cm
rain mn
cm
humidity
%
barometer
mb
20260502233750 18 343 22.5 29.0 0.00 0.00 0.00 34 1017.5
20260502233724 18 343 20.9 27.4 0.00 0.00 0.00 34 1017.6
20260502233247 18 342 16.1 22.5 0.00 0.00 0.00 33 1017.6
20260502232743 18 46 17.7 22.5 0.00 0.00 0.00 32 1017.5
20260502232240 19 358 27.4 30.6 0.00 0.00 0.00 33 1017.6
20260502231737 19 352 12.9 16.1 0.00 0.00 0.00 33 1017.7
20260502231722 18 352 12.9 16.1 0.00 0.00 0.00 33 1017.9
20260502231234 18 315 6.4 8.0 0.00 0.00 0.00 33 1017.8
20260502230733 18 343 12.9 17.7 0.00 0.00 0.00 33 1017.9
20260502230722 18 343 12.9 17.7 0.00 0.00 0.00 33 1018.1
20260502230231 18 360 16.1 24.1 0.00 0.00 0.00 33 1017.8
20260502225821 18 335 17.7 24.1 0.00 0.00 0.00 33 1018.0
20260502225727 18 357 14.5 24.1 0.00 0.00 0.00 33 1017.8
20260502225224 18 12 17.7 22.5 0.00 0.00 0.00 33 1018.0
20260502224720 18 318 12.9 20.9 0.00 0.00 0.00 34 1018.0
20260502224217 18 277 3.2 11.3 0.00 0.00 0.00 34 1018.1
20260502223823 18 360 16.1 20.9 0.00 0.00 0.00 33 1018.4
20260502223714 18 356 17.7 24.1 0.00 0.00 0.00 34 1018.0
20260502223213 18 1 22.5 27.4 0.00 0.00 0.00 34 1018.1
20260502222823 18 354 14.5 17.7 0.00 0.00 0.00 34 1018.4
20260502222710 18 9 19.3 24.1 0.00 0.00 0.00 34 1018.2
20260502222206 18 6 19.3 24.1 0.00 0.00 0.00 34 1018.2
20260502221922 18 314 9.7 14.5 0.00 0.00 0.00 34 1018.2
20260502221702 18 344 11.3 20.9 0.00 0.00 0.00 34 1018.2
20260502221159 18 4 14.5 20.9 0.00 0.00 0.00 34 1018.4
20260502220923 18 2 12.9 22.5 0.00 0.00 0.00 35 1018.5
20260502220655 18 349 19.3 30.6 0.00 0.00 0.00 34 1018.1
20260502220152 18 8 16.1 20.9 0.00 0.00 0.00 34 1018.5
20260502215922 18 14 19.3 22.5 0.00 0.00 0.00 34 1018.7
20260502215649 18 311 9.7 14.5 0.00 0.00 0.00 34 1018.5
20260502215146 18 321 9.7 17.7 0.00 0.00 0.00 33 1018.6
20260502214924 18 352 17.7 22.5 0.00 0.00 0.00 35 1018.8
20260502214643 18 35 16.1 24.1 0.00 0.00 0.00 34 1018.6
20260502214140 18 360 16.1 19.3 0.00 0.00 0.00 35 1018.5
20260502214023 17 4 14.5 17.7 0.00 0.00 0.00 35 1018.7
20260502213924 17 21 4.8 6.4 0.00 0.00 0.00 34 1018.9
20260502213637 17 17 9.7 12.9 0.00 0.00 0.00 35 1018.7
20260502213134 17 313 8.0 11.3 0.00 0.00 0.00 35 1018.9
20260502212922 17 344 17.7 22.5 0.00 0.00 0.00 36 1019.0
20260502212633 17 353 17.7 27.4 0.00 0.00 0.00 37 1018.7
20260502212131 17 34 22.5 25.7 0.00 0.00 0.00 37 1018.8
20260502211626 17 50 19.3 24.1 0.00 0.00 0.00 36 1018.9
20260502211124 17 46 27.4 32.2 0.00 0.00 0.00 36 1018.8
20260502210924 17 17 19.3 32.2 0.00 0.00 0.00 36 1019.0
20260502210621 17 4 16.1 33.8 0.00 0.00 0.00 35 1019.0
20260502210118 18 31 29.0 33.8 0.00 0.00 0.00 35 1018.8
20260502205923 17 18 19.3 24.1 0.00 0.00 0.00 35 1019.0
20260502205614 18 343 19.3 25.7 0.00 0.00 0.00 34 1018.9
20260502205112 18 19 24.1 29.0 0.00 0.00 0.00 34 1018.8
20260502204923 18 359 24.1 33.8 0.00 0.00 0.00 34 1019.0
20260502204822 18 342 20.9 25.7 0.00 0.00 0.00 34 1019.1
20260502204723 18 321 14.5 22.5 0.00 0.00 0.00 34 1019.2
20260502204608 18 342 9.7 17.7 0.00 0.00 0.00 33 1019.0
20260502204106 18 341 16.1 24.1 0.00 0.00 0.00 35 1019.0
20260502203724 17 349 20.9 27.4 0.00 0.00 0.00 35 1019.1
20260502203603 18 328 17.7 30.6 0.00 0.00 0.00 34 1019.0
20260502203100 18 19 17.7 22.5 0.00 0.00 0.00 35 1019.1
20260502202821 17 68 9.7 12.9 0.00 0.00 0.00 35 1019.2
20260502202555 18 35 16.1 19.3 0.00 0.00 0.00 35 1019.1
20260502202054 18 360 1.6 3.2 0.00 0.00 0.00 35 1019.3
20260502201550 18 11 14.5 17.7 0.00 0.00 0.00 35 1019.5
20260502201047 18 313 4.8 8.0 0.00 0.00 0.00 37 1019.5
20260502200923 17 285 4.8 8.0 0.00 0.00 0.00 36 1019.5
20260502200542 17 359 19.3 22.5 0.00 0.00 0.00 36 1019.3
20260502200041 17 331 9.7 22.5 0.00 0.00 0.00 37 1019.5
20260502195538 17 25 11.3 14.5 0.00 0.00 0.00 37 1019.6
20260502195033 17 45 17.7 24.1 0.00 0.00 0.00 36 1019.5
20260502194923 17 43 16.1 22.5 0.00 0.00 0.00 36 1019.6
20260502194530 17 17 22.5 29.0 0.00 0.00 0.00 36 1019.5
20260502194026 17 341 11.3 17.7 0.00 0.00 0.00 35 1019.6
20260502193923 17 337 8.0 9.7 0.00 0.00 0.00 35 1019.7
20260502193822 17 337 4.8 6.4 0.00 0.00 0.00 35 1019.8
20260502193524 17 332 14.5 17.7 0.00 0.00 0.00 35 1019.7
20260502193021 17 359 16.1 22.5 0.00 0.00 0.00 37 1019.6
20260502192725 17 1 17.7 22.5 0.00 0.00 0.00 37 1019.8
20260502192516 17 360 4.8 6.4 0.00 0.00 0.00 37 1019.7
20260502192014 17 354 11.3 16.1 0.00 0.00 0.00 35 1019.8
20260502191725 17 266 4.8 9.7 0.00 0.00 0.00 36 1019.8
20260502191511 17 16 8.0 11.3 0.00 0.00 0.00 35 1019.8
20260502191009 18 17 17.7 22.5 0.00 0.00 0.00 34 1019.7
20260502190724 18 4 11.3 12.9 0.00 0.00 0.00 34 1019.8
20260502190506 18 67 3.2 9.7 0.00 0.00 0.00 34 1019.7
20260502190002 18 67 3.2 6.4 0.00 0.00 0.00 35 1019.8
20260502185724 18 225 1.6 3.2 0.00 0.00 0.00 35 1020.0
20260502185621 18 225 4.8 6.4 0.00 0.00 0.00 34 1020.1
20260502185458 18 240 4.8 6.4 0.00 0.00 0.00 36 1019.9
20260502184955 18 270 3.2 8.0 0.00 0.00 0.00 36 1019.8
20260502184623 17 360 0.0 3.2 0.00 0.00 0.00 37 1020.1
20260502184450 17 360 1.6 3.2 0.00 0.00 0.00 36 1019.9
20260502183947 17 277 1.6 9.7 0.00 0.00 0.00 36 1020.0
20260502183623 16 252 3.2 8.0 0.00 0.00 0.00 36 1020.1
20260502183443 17 225 4.8 6.4 0.00 0.00 0.00 36 1020.0
20260502182938 17 248 6.4 8.0 0.00 0.00 0.00 36 1020.0
20260502182721 17 270 3.2 6.4 0.00 0.00 0.00 37 1020.2
20260502182434 17 270 1.6 6.4 0.00 0.00 0.00 37 1020.0
20260502181930 16 270 0.0 1.6 0.00 0.00 0.00 38 1020.2
20260502181723 16 246 1.6 4.8 0.00 0.00 0.00 38 1020.3
20260502181429 16 250 8.0 14.5 0.00 0.00 0.00 37 1020.1
20260502180927 16 198 6.4 11.3 0.00 0.00 0.00 38 1020.2
20260502180722 16 218 8.0 12.9 0.00 0.00 0.00 38 1020.4
20260502180424 16 235 8.0 9.7 0.00 0.00 0.00 38 1020.2
20260502170425 13 233 8.0 11.3 0.00 0.00 0.00 41 1020.4
20260502170343 13 225 8.0 12.9 0.00 0.00 0.00 42 1020.3
20260502164330 12 225 8.0 11.3 0.00 0.00 0.00 44 1020.0
20260502163826 12 225 6.4 9.7 0.00 0.00 0.00 45 1019.9
20260502163423 12 223 8.0 11.3 0.00 0.00 0.00 45 1020.2
20260502163322 12 225 8.0 9.7 0.00 0.00 0.00 44 1020.0
20260502162820 12 242 8.0 9.7 0.00 0.00 0.00 44 1020.0
20260502162422 11 225 8.0 12.9 0.00 0.00 0.00 45 1020.1
20260502162316 12 225 8.0 11.3 0.00 0.00 0.00 45 1020.0
20260502161814 12 226 6.4 6.4 0.00 0.00 0.00 45 1020.0
20260502161422 11 225 8.0 11.3 0.00 0.00 0.00 43 1020.1
20260502161309 12 225 8.0 11.3 0.00 0.00 0.00 44 1019.8
20260502160808 11 247 6.4 11.3 0.00 0.00 0.00 44 1019.9
20260502160421 11 247 6.4 8.0 0.00 0.00 0.00 44 1020.0
20260502160306 11 228 4.8 6.4 0.00 0.00 0.00 44 1019.8
20260502152235 9 202 4.8 6.4 0.00 0.00 0.00 50 1019.6
20260502151733 8 225 1.6 3.2 0.00 0.00 0.00 51 1019.5
20260502151229 8 225 0.0 1.6 0.00 0.00 0.00 51 1019.3
20260502150727 8 135 3.2 4.8 0.00 0.00 0.00 53 1019.2
20260502150323 7 135 0.0 0.0 0.00 0.00 0.00 54 1019.3
20260502150224 7 135 1.6 3.2 0.00 0.00 0.00 54 1019.1
20260502130612 3 225 6.4 8.0 0.00 0.00 0.00 61 1016.5
20260502130421 3 225 6.4 6.4 0.00 0.00 0.00 62 1016.6
20260502130110 3 180 9.7 11.3 0.00 0.00 0.00 62 1016.6
20260502123555 6 270 1.6 3.2 0.00 0.00 0.00 49 1016.7
20260502123421 6 270 4.8 6.4 0.00 0.00 0.00 49 1016.8
20260502123052 7 270 6.4 8.0 0.00 0.00 0.00 48 1016.6
20260502122548 7 45 0.0 0.0 0.00 0.00 0.00 46 1016.4
20260502122423 7 45 0.0 0.0 0.00 0.00 0.00 47 1016.5
20260502122046 8 45 0.0 1.6 0.00 0.00 0.00 47 1016.3
20260502121543 8 56 4.8 6.4 0.00 0.00 0.00 47 1016.3
20260502121422 7 45 6.4 6.4 0.00 0.00 0.00 48 1016.6
20260502121041 7 78 3.2 6.4 0.00 0.00 0.00 48 1016.3
20260502120537 7 50 8.0 9.7 0.00 0.00 0.00 49 1016.4
20260502120521 7 50 6.4 9.7 0.00 0.00 0.00 49 1016.5
20260502115532 7 112 1.6 1.6 0.00 0.00 0.00 50 1016.4
20260502115522 6 112 0.0 1.6 0.00 0.00 0.00 50 1016.5
20260502115027 7 105 4.8 4.8 0.00 0.00 0.00 50 1016.3
20260502114524 7 48 8.0 8.0 0.00 0.00 0.00 49 1016.4
20260502114425 7 45 6.4 8.0 0.00 0.00 0.00 49 1016.5
20260502114021 7 45 3.2 3.2 0.00 0.00 0.00 51 1016.3
20260502113522 6 80 4.8 6.4 0.00 0.00 0.00 52 1016.4
20260502113519 6 90 3.2 6.4 0.00 0.00 0.00 52 1016.0
20260502113017 6 90 4.8 6.4 0.00 0.00 0.00 54 1016.0
20260502112515 5 67 6.4 8.0 0.00 0.00 0.00 53 1016.3
20260502112012 6 45 9.7 9.7 0.00 0.00 0.00 51 1016.4
20260502111509 7 3 11.3 12.9 0.00 0.00 0.00 50 1016.7
20260502111007 7 270 3.2 4.8 0.00 0.00 0.00 49 1016.3
20260502110522 7 270 1.6 4.8 0.00 0.00 0.00 48 1016.6
20260502110504 7 270 3.2 6.4 0.00 0.00 0.00 49 1016.6
20260502110422 7 270 1.6 4.8 0.00 0.00 0.00 49 1016.7
20260502110002 7 292 3.2 4.8 0.00 0.00 0.00 48 1016.4
20260502105459 8 270 4.8 6.4 0.00 0.00 0.00 47 1016.0
20260502105424 7 270 3.2 6.4 0.00 0.00 0.00 47 1016.2
20260502104956 8 270 6.4 8.0 0.00 0.00 0.00 46 1015.9
20260502104453 8 270 8.0 8.0 0.00 0.00 0.00 45 1015.8
20260502104423 8 270 6.4 8.0 0.00 0.00 0.00 45 1016.0
20260502103950 9 270 8.0 9.7 0.00 0.00 0.00 45 1015.7
20260502103448 8 247 6.4 6.4 0.00 0.00 0.00 46 1015.7
20260502102945 8 247 4.8 6.4 0.00 0.00 0.00 46 1015.5
20260502102442 8 247 6.4 6.4 0.00 0.00 0.00 46 1015.7
20260502102421 8 247 4.8 6.4 0.00 0.00 0.00 46 1015.9
20260502102323 8 247 4.8 6.4 0.00 0.00 0.00 46 1015.9
20260502101938 8 247 8.0 8.0 0.00 0.00 0.00 45 1015.7
20260502101437 8 247 6.4 8.0 0.00 0.00 0.00 44 1015.6
20260502101322 8 247 6.4 8.0 0.00 0.00 0.00 43 1015.7
20260502100934 9 225 8.0 9.7 0.00 0.00 0.00 44 1015.6
20260502100433 9 225 8.0 9.7 0.00 0.00 0.00 43 1015.5
20260502100324 9 225 6.4 6.4 0.00 0.00 0.00 43 1015.6
20260502091425 9 225 6.4 9.7 0.00 0.00 0.00 43 1015.9
20260502091408 10 225 8.0 11.3 0.00 0.00 0.00 42 1015.7
20260502090905 10 225 8.0 9.7 0.00 0.00 0.00 40 1015.7
20260502090522 10 225 8.0 9.7 0.00 0.00 0.00 39 1015.8
20260502090402 11 225 8.0 8.0 0.00 0.00 0.00 39 1015.6
20260502071257 14 270 0.0 0.0 0.00 0.00 0.00 35 1015.4
20260502070755 14 270 0.0 0.0 0.00 0.00 0.00 35 1015.5
20260502070252 14 270 0.0 1.6 0.00 0.00 0.00 35 1015.5
20260502065751 13 337 0.0 0.0 0.00 0.00 0.00 35 1015.6
20260502065248 13 337 0.0 0.0 0.00 0.00 0.00 35 1015.5
20260502064746 14 337 1.6 3.2 0.00 0.00 0.00 33 1015.5
20260502064244 15 337 1.6 4.8 0.00 0.00 0.00 32 1015.5
20260502063741 16 247 1.6 4.8 0.00 0.00 0.00 30 1015.6
20260502063239 16 236 4.8 6.4 0.00 0.00 0.00 28 1015.5
20260502062736 17 238 8.0 9.7 0.00 0.00 0.00 27 1015.5
20260502062233 17 225 8.0 11.3 0.00 0.00 0.00 27 1015.6
20260502061732 17 219 8.0 9.7 0.00 0.00 0.00 28 1015.6
20260502061229 16 199 11.3 14.5 0.00 0.00 0.00 28 1015.5
20260502060724 16 180 16.1 17.7 0.00 0.00 0.00 29 1015.4
20260502060220 16 180 14.5 17.7 0.00 0.00 0.00 28 1015.4
20260502055730 16 180 14.5 17.7 0.00 0.00 0.00 29 1015.5
20260502055719 16 180 14.5 17.7 0.00 0.00 0.00 28 1015.4
20260502055216 16 180 14.5 17.7 0.00 0.00 0.00 28 1015.4
20260502054715 17 180 14.5 16.1 0.00 0.00 0.00 28 1015.5
20260502054212 17 180 14.5 16.1 0.00 0.00 0.00 28 1015.5
20260502053728 17 180 12.9 14.5 0.00 0.00 0.00 28 1015.6
20260502053710 17 180 14.5 16.1 0.00 0.00 0.00 28 1015.5
20260502053206 17 180 14.5 16.1 0.00 0.00 0.00 28 1015.5
20260502052730 17 180 12.9 16.1 0.00 0.00 0.00 27 1015.7
20260502052704 17 180 14.5 16.1 0.00 0.00 0.00 27 1015.5
20260502052203 17 180 14.5 16.1 0.00 0.00 0.00 28 1015.5
20260502051828 17 180 12.9 14.5 0.00 0.00 0.00 27 1015.8
20260502051700 17 180 14.5 16.1 0.00 0.00 0.00 27 1015.5
20260502051159 17 180 12.9 16.1 0.00 0.00 0.00 27 1015.5
20260502050830 16 180 12.9 14.5 0.00 0.00 0.00 27 1015.9
20260502050654 17 180 12.9 16.1 0.00 0.00 0.00 27 1015.6
20260502050151 17 180 14.5 17.7 0.00 0.00 0.00 26 1015.7
20260502045928 16 180 14.5 16.1 0.00 0.00 0.00 27 1015.9
20260502045648 17 180 14.5 17.7 0.00 0.00 0.00 27 1015.6
20260502045145 17 179 14.5 17.7 0.00 0.00 0.00 25 1015.5
20260502044928 17 179 16.1 17.7 0.00 0.00 0.00 25 1015.7
20260502044642 17 178 16.1 17.7 0.00 0.00 0.00 23 1015.7
20260502044138 18 180 17.7 22.5 0.00 0.00 0.00 21 1015.5
20260502043931 18 180 16.1 19.3 0.00 0.00 0.00 20 1015.9
20260502043636 19 212 11.3 20.9 0.00 0.00 0.00 20 1015.5
20260502043133 19 180 6.4 6.4 0.00 0.00 0.00 19 1015.5
20260502042930 18 180 6.4 8.0 0.00 0.00 0.00 19 1015.6
20260502042632 19 180 8.0 8.0 0.00 0.00 0.00 20 1015.5
20260502042129 19 180 8.0 9.7 0.00 0.00 0.00 19 1015.5
20260502041627 19 187 8.0 11.3 0.00 0.00 0.00 19 1015.5
20260502041124 19 202 3.2 4.8 0.00 0.00 0.00 20 1015.4
20260502041029 19 202 3.2 3.2 0.00 0.00 0.00 20 1015.6
20260502040621 19 202 3.2 3.2 0.00 0.00 0.00 19 1015.4
20260502040118 19 202 1.6 3.2 0.00 0.00 0.00 20 1015.4
20260502040033 19 202 1.6 1.6 0.00 0.00 0.00 20 1015.5
20260502035614 19 202 3.2 4.8 0.00 0.00 0.00 19 1015.3
20260502035111 19 202 3.2 4.8 0.00 0.00 0.00 19 1015.4
20260502035029 19 202 3.2 3.2 0.00 0.00 0.00 19 1015.5
20260502034609 19 202 3.2 3.2 0.00 0.00 0.00 20 1015.2
20260502034108 20 202 3.2 3.2 0.00 0.00 0.00 20 1015.2
20260502033605 20 202 1.6 3.2 0.00 0.00 0.00 21 1015.2
20260502033129 19 202 1.6 1.6 0.00 0.00 0.00 21 1015.5
20260502033102 19 202 3.2 3.2 0.00 0.00 0.00 20 1015.2
20260502032558 20 135 0.0 0.0 0.00 0.00 0.00 20 1015.2
20260502032130 20 135 0.0 0.0 0.00 0.00 0.00 20 1015.5
20260502032055 20 135 0.0 0.0 0.00 0.00 0.00 21 1015.4
20260502031553 20 270 1.6 3.2 0.00 0.00 0.00 21 1015.4
20260502031129 20 270 1.6 3.2 0.00 0.00 0.00 20 1015.5
20260502031050 20 270 3.2 3.2 0.00 0.00 0.00 20 1015.2
20260502030549 21 270 3.2 3.2 0.00 0.00 0.00 19 1015.2
20260502030129 21 270 0.0 3.2 0.00 0.00 0.00 19 1015.4
20260502030047 21 270 1.6 3.2 0.00 0.00 0.00 20 1015.3
20260502030029 21 270 1.6 1.6 0.00 0.00 0.00 20 1015.5
20260502025544 21 270 1.6 4.8 0.00 0.00 0.00 18 1015.2
20260502025042 22 270 4.8 6.4 0.00 0.00 0.00 19 1015.2
20260502025030 21 270 3.2 4.8 0.00 0.00 0.00 19 1015.4
20260502024539 22 270 3.2 4.8 0.00 0.00 0.00 18 1015.2
20260502024037 22 270 6.4 8.0 0.00 0.00 0.00 18 1015.2
20260502023534 22 270 1.6 3.2 0.00 0.00 0.00 19 1015.2
20260502023032 22 270 4.8 6.4 0.00 0.00 0.00 19 1015.1
20260502022528 22 270 4.8 8.0 0.00 0.00 0.00 19 1015.3
20260502022030 22 270 3.2 6.4 0.00 0.00 0.00 19 1015.5
20260502022026 22 270 4.8 8.0 0.00 0.00 0.00 19 1015.3
20260502021523 22 270 6.4 9.7 0.00 0.00 0.00 18 1015.4
20260502021029 22 270 6.4 11.3 0.00 0.00 0.00 19 1015.4
20260502021020 22 270 9.7 12.9 0.00 0.00 0.00 18 1015.4
20260502020518 22 266 8.0 11.3 0.00 0.00 0.00 19 1015.4
20260502020014 22 248 8.0 9.7 0.00 0.00 0.00 18 1015.4
20260502015512 22 254 9.7 12.9 0.00 0.00 0.00 19 1015.5
20260502015030 22 253 6.4 9.7 0.00 0.00 0.00 19 1015.6
20260502015008 22 252 8.0 11.3 0.00 0.00 0.00 18 1015.5
20260502014928 22 252 8.0 11.3 0.00 0.00 0.00 18 1015.7
20260502014505 22 254 12.9 17.7 0.00 0.00 0.00 19 1015.4
20260502014002 22 240 12.9 16.1 0.00 0.00 0.00 19 1015.5
20260502013929 22 240 11.3 14.5 0.00 0.00 0.00 19 1015.6
20260502013457 22 270 6.4 9.7 0.00 0.00 0.00 19 1015.5
20260502012954 22 253 9.7 12.9 0.00 0.00 0.00 19 1015.5
20260502012929 22 253 9.7 12.9 0.00 0.00 0.00 19 1015.7
20260502012452 22 248 8.0 16.1 0.00 0.00 0.00 19 1015.5
20260502012028 22 270 8.0 11.3 0.00 0.00 0.00 19 1015.7
20260502011950 22 269 9.7 14.5 0.00 0.00 0.00 19 1015.6
20260502011445 22 247 9.7 11.3 0.00 0.00 0.00 19 1015.7
20260502010942 22 241 14.5 17.7 0.00 0.00 0.00 19 1015.5
20260502010439 23 260 6.4 9.7 0.00 0.00 0.00 18 1015.7
20260502010029 22 262 9.7 12.9 0.00 0.00 0.00 19 1015.8
20260502005935 23 248 8.0 9.7 0.00 0.00 0.00 19 1015.6
20260502005433 22 265 6.4 9.7 0.00 0.00 0.00 19 1015.7
20260502005030 22 270 3.2 6.4 0.00 0.00 0.00 18 1015.9
20260502004931 22 256 6.4 11.3 0.00 0.00 0.00 18 1015.8
20260502004427 22 235 9.7 12.9 0.00 0.00 0.00 18 1015.7
20260502004028 22 258 8.0 12.9 0.00 0.00 0.00 19 1016.0
20260502003924 22 247 8.0 9.7 0.00 0.00 0.00 19 1015.7
20260502003421 22 264 8.0 12.9 0.00 0.00 0.00 19 1015.8
20260502002917 22 249 14.5 19.3 0.00 0.00 0.00 19 1015.7
20260502002415 22 245 6.4 11.3 0.00 0.00 0.00 18 1016.0
20260502001930 22 289 1.6 3.2 0.00 0.00 0.00 19 1016.2
20260502001912 23 308 6.4 8.0 0.00 0.00 0.00 19 1016.0
20260502001410 23 256 4.8 8.0 0.00 0.00 0.00 19 1016.0
20260502000929 22 270 6.4 9.7 0.00 0.00 0.00 18 1016.3
20260502000907 22 270 6.4 11.3 0.00 0.00 0.00 19 1016.0
20260502000406 22 225 3.2 9.7 0.00 0.00 0.00 19 1016.2
20260501235929 22 288 6.4 11.3 0.00 0.00 0.00 19 1016.2
20260501235901 22 263 11.3 16.1 0.00 0.00 0.00 18 1016.0
20260501235357 22 234 11.3 16.1 0.00 0.00 0.00 19 1016.3
20260501235027 22 237 9.7 12.9 0.00 0.00 0.00 19 1016.4
20260501234928 22 249 6.4 11.3 0.00 0.00 0.00 19 1016.4
20260501234852 22 245 8.0 9.7 0.00 0.00 0.00 19 1016.3
20260501234349 22 247 11.3 17.7 0.00 0.00 0.00 19 1016.4